Location: Stanford
(52.2833°N, 2.4333°W)
Time: 21:46:28
(UTC+00:00)

Ariane Rocket - Pass Details

Date: 22 January 2021
Orbit: 760 x 770 km, 98.7° (Epoch: 01 March)

Event Time Altitude Azimuth Distance (km) Brightness Sun altitude
Exits shadow 18:35:26 22° 41° (NE) 1,652 4.3 -17.4°
Drops below altitude 10° 18:38:26 10° 6° (N) 2,321 5.3 -17.9°
Sets 18:41:10 0° 352° (N) 3,253 6.3 -18.3°
